Location: Unspecified
(35.4008°N, 0.0000°E)
Time: 19:52:48
(UTC+00:00)

CHECKMATE 10 - Visible Passes

Search period start: 04 April 2026 00:00
Search period end: 14 April 2026 00:00
Orbit: 941 x 948 km, 81.0° (Epoch: 29 March)

Date Brightness Start Highest point End Pass type
(mag) Time Alt. Az. Time Alt. Az. Time Alt. Az.
4 Apr ? 03:01:09 10° NNE 03:06:35 33° ENE 03:11:57 10° SE visible
4 Apr ? 04:46:10 10° NNW 04:51:24 31° W 04:56:36 10° SSW visible
5 Apr ? 03:16:52 10° N 03:22:49 52° ENE 03:28:42 10° SSE visible
5 Apr ? 05:03:11 10° NW 05:07:14 19° W 05:11:17 10° SW visible
6 Apr ? 03:32:48 10° N 03:38:57 84° E 03:45:02 10° S visible
7 Apr ? 02:05:46 10° NNE 02:09:36 17° ENE 02:13:23 10° ESE visible
7 Apr ? 03:49:00 10° NNW 03:55:00 61° W 04:00:57 10° S visible
8 Apr ? 02:20:52 10° NNE 02:25:58 27° ENE 02:30:31 12° SE visible
8 Apr ? 04:05:26 10° NNW 04:10:58 37° W 04:14:23 21° SW visible
9 Apr ? 02:36:28 10° N 02:42:15 43° ENE 02:44:56 28° SE visible
9 Apr ? 04:22:13 10° NW 04:26:49 23° W 04:28:50 19° WSW visible
10 Apr ? 02:52:20 10° N 02:58:25 70° E 02:59:46 54° SE visible
10 Apr ? 04:39:46 10° NW 04:42:37 14° W 04:43:41 13° W visible
11 Apr ? 01:25:56 10° NE 01:28:56 14° ENE 01:30:54 12° E visible
11 Apr ? 03:08:25 10° NNW 03:14:30 74° W 03:14:51 72° SW visible
12 Apr ? 01:40:41 10° NNE 01:45:21 22° ENE 01:46:08 22° E visible
12 Apr ? 03:24:45 10° NNW 03:30:05 45° W 03:30:05 45° W visible
13 Apr ? 01:56:07 10° N 02:01:30 36° ENE 02:01:30 36° ENE visible
13 Apr ? 03:41:22 10° NNW 03:45:27 27° WNW 03:45:27 27° WNW visible
